Regional Weather Roundup
Issued by NWS Nashville, TN

Home | Current Version | Previous Version | Text Only | Print | Product List | Glossary On
Versions: 1 2 3 4 5 6 7 8 9 10 11 12 13 14 15 16 17 18 19 20 21 22 23 24 25 26 27 28 29 30 31 32 33 34 35 36 37 38 39 40 41 42 43 44 45 46 47 48 49 50
000
ASUS44 KOHX 230315
RWROHX
MIDDLE TENNESSEE HOURLY WEATHER ROUNDUP
NATIONAL WEATHER SERVICE NASHVILLE TN
1000 PM CDT TUE JUL 22 2014

NOTE: "FAIR" INDICATES FEW OR NO CLOUDS BELOW 12,000 FEET WITH
NO SIGNIFICANT WEATHER AND/OR OBSTRUCTIONS TO VISIBILITY.

* THESE REPORTS ARE NOT UNDER NWS QUALITY CONTROL AND MAY NOT
  REPORT WEATHER SUCH AS PRECIPITATION AND FOG.


TNZ005>011-023>034-057-059-062>066-078-080-230400
...NORTHERN MIDDLE TENNESSEE...

CITY           SKY/WX    TMP DP  RH WIND       PRES   REMARKS
CLARKSVILLE    CLEAR     80  72  76 S5        30.07R
CROSSVILLE     CLOUDY    73  70  90 CALM      30.18R
GALLATIN         N/A     81  73  76 CALM      30.09R
DICKSON        CLEAR     77  72  83 CALM      30.09R
LEBANON        CLEAR     79  71  76 CALM      30.08R
LIVINGSTON     CLOUDY    77  70  79 CALM      30.13R
NASHVILLE      MOCLDY    81  72  74 CALM      30.09R
PORTLAND       CLEAR     77  72  83 S5        30.08R
SMYRNA         CLEAR     79  73  81 CALM      30.09R
SPARTA         PTCLDY    77  73  88 CALM      30.12S
$$
TNZ056-058-060-061-075>077-079-093>097-230400
...SOUTHERN MIDDLE TENNESSEE...

CITY           SKY/WX    TMP DP  RH WIND       PRES   REMARKS
COLUMBIA       CLEAR     77  73  88 CALM      30.08S
FAYETTEVILLE   CLEAR     73  72  94 S115G178  30.12R
LEWISBURG      CLEAR     78  72  82 CALM      30.09S
MCMINNVILLE    MOCLDY    79  73  83 SW7       30.13R
MURFREESBORO   CLEAR     81  70  69 S3        30.09R
SHELBYVILLE    CLEAR     79  72  78 CALM      30.11F
TULLAHOMA      MOCLDY    73  72  94 SE6       30.13F
WINCHESTER     CLEAR     72  72 100 SE5       30.13S
$$


...KEY TO REMARKS...
VSB - VISIBILITY IN MILES
WCI - WIND CHILL INDEX
HX  - HEAT INDEX



USA.gov is the U.S. government's official web portal to all federal, state and local government web resources and services.